| time (UTC) | temp F | wind direction | speed knots | gust knots | rain 1hr in | rain 24hr in | rain mn in | humidity % | barometer mb |
| 20260903201529 | 58 | 103 | 0.0 | 3.5 | 0.00 | 0.14 | 0.11 | 85 | 1009.0 |
| 20260903200031 | 59 | 148 | 0.0 | 2.6 | 0.00 | 0.14 | 0.11 | 81 | 1009.0 |
| 20260903194542 | 59 | 185 | 0.0 | 4.3 | 0.00 | 0.14 | 0.11 | 81 | 1008.8 |
| 20260903193024 | 59 | 153 | 0.0 | 4.3 | 0.00 | 0.14 | 0.11 | 84 | 1008.8 |
| 20260903191524 | 58 | 169 | 0.0 | 3.5 | 0.00 | 0.20 | 0.11 | 85 | 1008.9 |
| 20260903190011 | 58 | 212 | 0.0 | 4.3 | 0.00 | 0.20 | 0.11 | 87 | 1009.0 |
| 20260903184516 | 57 | 181 | 0.0 | 2.6 | 0.00 | 0.20 | 0.11 | 89 | 1009.2 |
| 20260903183009 | 57 | 152 | 0.0 | 1.7 | 0.00 | 0.20 | 0.11 | 90 | 1009.2 |
| 20260903181521 | 57 | 221 | 0.0 | 2.6 | 0.00 | 0.24 | 0.11 | 91 | 1009.0 |
| 20260903180007 | 56 | 174 | 0.0 | 1.7 | 0.00 | 0.24 | 0.11 | 93 | 1009.0 |
| 20260903174507 | 56 | 176 | 0.0 | 2.6 | 0.00 | 0.24 | 0.11 | 94 | 1009.0 |
| 20260903173006 | 56 | 255 | 0.0 | 1.7 | 0.00 | 0.24 | 0.11 | 94 | 1008.9 |
| 20260903171552 | 56 | 310 | 0.0 | 3.5 | 0.00 | 0.25 | 0.11 | 96 | 1008.9 |
| 20260903170056 | 55 | 169 | 0.0 | 0.9 | 0.05 | 0.25 | 0.11 | 96 | 1009.1 |
| 20260903164538 | 54 | 141 | 0.0 | 0.9 | 0.07 | 0.25 | 0.11 | 97 | 1009.2 |
| 20260903163045 | 53 | 155 | 0.0 | 0.0 | 0.07 | 0.25 | 0.11 | 97 | 1009.2 |
| 20260903161536 | 52 | 153 | 0.0 | 0.0 | 0.07 | 0.25 | 0.11 | 96 | 1009.3 |
| 20260903160034 | 52 | 150 | 0.0 | 0.9 | 0.02 | 0.20 | 0.06 | 97 | 1009.3 |
| 20260903154532 | 52 | 140 | 0.0 | 1.7 | 0.00 | 0.18 | 0.04 | 97 | 1009.3 |
| 20260903153029 | 0 | 0.0 | 0.0 | 0.00 | 0.18 | 0.04 | 1009.1 | ||
| 20260903151526 | 0 | 0.0 | 0.0 | 0.00 | 0.18 | 0.04 | 1009.1 | ||
| 20260903150024 | 0 | 0.0 | 0.0 | 0.00 | 0.18 | 0.04 | 1008.9 | ||
| 20260903144602 | 0 | 0.0 | 0.0 | 0.00 | 0.18 | 0.04 | 1008.8 | ||
| 20260903143101 | 0 | 0.0 | 0.0 | 0.00 | 0.18 | 0.04 | 1008.6 | ||
| 20260903141547 | 0 | 0.0 | 0.0 | 0.00 | 0.18 | 0.04 | 1008.5 | ||
| 20260903140047 | 0 | 0.0 | 0.0 | 0.00 | 0.18 | 0.04 | 1008.4 | ||
| 20260903134541 | 0 | 0.0 | 0.0 | 0.00 | 0.18 | 0.04 | 1008.5 | ||
| 20260903133038 | 0 | 0.0 | 0.0 | 0.00 | 0.18 | 0.04 | 1008.3 | ||
| 20260903131534 | 0 | 0.0 | 0.0 | 0.00 | 0.18 | 0.04 | 1008.3 | ||
| 20260903130029 | 0 | 0.0 | 0.0 | 0.00 | 0.18 | 0.04 | 1008.3 | ||
| 20260903124526 | 0 | 0.0 | 0.0 | 0.00 | 0.18 | 0.04 | 1008.4 | ||
| 20260903123028 | 0 | 0.0 | 0.0 | 0.00 | 0.18 | 0.04 | 1008.5 | ||
| 20260903121519 | 53 | 173 | 0.0 | 1.7 | 0.00 | 0.18 | 0.04 | 95 | 1008.4 |
| 20260903120008 | 53 | 160 | 0.0 | 0.9 | 0.00 | 0.18 | 0.04 | 95 | 1008.5 |
| 20260903114506 | 53 | 171 | 0.0 | 0.0 | 0.00 | 0.18 | 0.04 | 95 | 1008.4 |
| 20260903113005 | 53 | 151 | 0.0 | 0.9 | 0.00 | 0.18 | 0.04 | 95 | 1008.5 |
| 20260903111503 | 53 | 168 | 0.0 | 0.9 | 0.00 | 0.18 | 0.04 | 95 | 1008.5 |
| 20260903110003 | 53 | 168 | 0.0 | 0.9 | 0.00 | 0.18 | 0.04 | 95 | 1008.5 |
| 20260903104503 | 53 | 192 | 0.0 | 2.6 | 0.00 | 0.18 | 0.04 | 96 | 1008.5 |
| 20260903103002 | 53 | 146 | 0.0 | 0.9 | 0.00 | 0.18 | 0.04 | 96 | 1008.6 |
| 20260903101501 | 53 | 162 | 0.0 | 3.5 | 0.00 | 0.18 | 0.04 | 96 | 1008.5 |
| 20260903100045 | 53 | 166 | 0.0 | 1.7 | 0.00 | 0.18 | 0.04 | 96 | 1008.4 |
| 20260903094549 | 53 | 155 | 0.0 | 0.9 | 0.00 | 0.18 | 0.04 | 96 | 1008.4 |
| 20260903093049 | 53 | 122 | 0.0 | 1.7 | 0.00 | 0.18 | 0.04 | 96 | 1008.4 |
| 20260903091524 | 53 | 203 | 0.0 | 1.7 | 0.00 | 0.18 | 0.04 | 96 | 1008.4 |
| 20260903090009 | 53 | 165 | 0.0 | 0.9 | 0.00 | 0.18 | 0.04 | 96 | 1008.6 |
| 20260903084505 | 53 | 153 | 0.0 | 0.9 | 0.00 | 0.18 | 0.04 | 96 | 1008.6 |
| 20260903083051 | 53 | 155 | 0.0 | 2.6 | 0.00 | 0.18 | 0.04 | 96 | 1008.7 |
| 20260903081547 | 53 | 176 | 0.0 | 0.9 | 0.00 | 0.18 | 0.04 | 96 | 1008.7 |
| 20260903080029 | 53 | 194 | 0.0 | 1.7 | 0.00 | 0.18 | 0.04 | 96 | 1008.7 |
| 20260903074528 | 53 | 169 | 0.0 | 1.7 | 0.00 | 0.18 | 0.04 | 96 | 1008.8 |
| 20260903073010 | 53 | 148 | 0.0 | 1.7 | 0.00 | 0.18 | 0.04 | 96 | 1008.8 |
| 20260903071509 | 53 | 155 | 0.0 | 1.7 | 0.00 | 0.18 | 0.04 | 96 | 1008.7 |
| 20260903064604 | 54 | 158 | 0.0 | 1.7 | 0.00 | 0.18 | 0.04 | 96 | 1008.6 |
| 20260903063102 | 54 | 123 | 0.0 | 0.9 | 0.00 | 0.18 | 0.04 | 96 | 1008.6 |
| 20260903061553 | 54 | 154 | 0.0 | 1.7 | 0.00 | 0.18 | 0.04 | 96 | 1008.7 |
| 20260903060053 | 54 | 167 | 0.0 | 2.6 | 0.00 | 0.18 | 0.04 | 96 | 1008.8 |
| 20260903054553 | 54 | 134 | 0.0 | 2.6 | 0.00 | 0.18 | 0.04 | 96 | 1008.8 |
| 20260903053051 | 54 | 164 | 0.0 | 0.9 | 0.00 | 0.18 | 0.04 | 96 | 1008.8 |
| 20260903051550 | 54 | 160 | 0.0 | 0.9 | 0.00 | 0.18 | 0.04 | 96 | 1008.7 |
| 20260903050042 | 54 | 160 | 0.0 | 0.9 | 0.00 | 0.18 | 0.04 | 96 | 1008.7 |
| 20260903044546 | 54 | 165 | 0.0 | 0.9 | 0.00 | 0.18 | 0.04 | 96 | 1008.7 |
| 20260903043034 | 54 | 160 | 0.0 | 0.0 | 0.00 | 0.18 | 0.04 | 96 | 1008.4 |
| 20260903041533 | 54 | 155 | 0.0 | 0.0 | 0.00 | 0.18 | 0.04 | 96 | 1008.3 |
| 20260903040036 | 54 | 158 | 0.0 | 0.0 | 0.00 | 0.18 | 0.04 | 96 | 1008.2 |
| 20260903034530 | 54 | 158 | 0.0 | 0.0 | 0.00 | 0.18 | 0.04 | 95 | 1007.9 |
| 20260903033027 | 55 | 158 | 0.0 | 0.0 | 0.00 | 0.18 | 0.04 | 95 | 1007.7 |
| 20260903031524 | 55 | 158 | 0.0 | 0.0 | 0.00 | 0.18 | 0.04 | 95 | 1007.6 |
| 20260903030005 | 56 | 158 | 0.0 | 0.0 | 0.00 | 0.18 | 0.04 | 94 | 1007.5 |
| 20260903024502 | 56 | 158 | 0.0 | 0.0 | 0.00 | 0.18 | 0.04 | 94 | 1007.3 |
| 20260903023046 | 57 | 146 | 0.0 | 0.9 | 0.00 | 0.18 | 0.04 | 94 | 1007.1 |
| 20260903021543 | 58 | 142 | 0.0 | 0.9 | 0.00 | 0.18 | 0.04 | 93 | 1007.0 |
| 20260903020034 | 58 | 172 | 0.0 | 1.7 | 0.00 | 0.18 | 0.04 | 93 | 1007.0 |
| 20260903014529 | 58 | 172 | 0.0 | 0.9 | 0.00 | 0.18 | 0.04 | 93 | 1006.7 |
| 20260903013028 | 58 | 157 | 0.0 | 1.7 | 0.00 | 0.18 | 0.04 | 92 | 1006.7 |
| 20260903011527 | 58 | 119 | 0.0 | 0.9 | 0.00 | 0.18 | 0.04 | 94 | 1006.5 |
| 20260903010023 | 58 | 155 | 0.0 | 1.7 | 0.00 | 0.18 | 0.04 | 95 | 1006.5 |
| 20260903004525 | 57 | 113 | 0.0 | 0.9 | 0.01 | 0.18 | 0.04 | 96 | 1006.4 |
| 20260903003021 | 57 | 131 | 0.0 | 0.9 | 0.01 | 0.18 | 0.04 | 95 | 1006.3 |
| 20260903001525 | 57 | 119 | 0.0 | 0.9 | 0.01 | 0.18 | 0.04 | 95 | 1006.3 |
| 20260903000016 | 57 | 91 | 0.0 | 0.9 | 0.01 | 0.18 | 0.04 | 96 | 1006.1 |
| 20260902234506 | 57 | 113 | 0.0 | 0.9 | 0.00 | 0.17 | 0.03 | 96 | 1006.1 |
| 20260902233008 | 57 | 148 | 0.0 | 0.9 | 0.02 | 0.17 | 0.03 | 96 | 1006.0 |
| 20260902231508 | 57 | 129 | 0.0 | 0.9 | 0.02 | 0.17 | 0.03 | 96 | 1006.1 |
| 20260902230001 | 57 | 140 | 0.0 | 0.9 | 0.02 | 0.17 | 0.03 | 96 | 1005.9 |
| 20260902224614 | 57 | 165 | 0.0 | 2.6 | 0.03 | 0.17 | 0.03 | 96 | 1005.6 |
| 20260902223112 | 57 | 198 | 0.9 | 3.5 | 0.01 | 0.15 | 0.01 | 95 | 1005.4 |
| 20260902221605 | 57 | 193 | 0.0 | 3.5 | 0.01 | 0.15 | 0.01 | 95 | 1005.3 |
| 20260902220037 | 56 | 135 | 0.0 | 2.6 | 0.01 | 0.15 | 0.01 | 95 | 1005.2 |
| 20260902214605 | 56 | 155 | 0.0 | 3.5 | 0.00 | 0.14 | 0.00 | 95 | 1005.1 |
| 20260902213022 | 56 | 162 | 0.0 | 5.2 | 0.00 | 0.14 | 0.00 | 95 | 1005.1 |
| 20260902211527 | 56 | 168 | 0.0 | 2.6 | 0.00 | 0.14 | 0.14 | 95 | 1005.1 |
| 20260902210021 | 56 | 163 | 0.0 | 1.7 | 0.01 | 0.14 | 0.14 | 95 | 1005.0 |
| 20260902204520 | 56 | 310 | 0.0 | 2.6 | 0.01 | 0.14 | 0.14 | 95 | 1005.0 |
| 20260902203020 | 56 | 202 | 0.0 | 3.5 | 0.03 | 0.14 | 0.14 | 95 | 1004.9 |